EW5822 Weather Reports


Display with metric or nautical units.
time (UTC)temp
F
wind
direction
speed
MPH
gust
MPH
rain 1hr
in
rain 24hr
in
rain mn
in
humidity
%
barometer
mb
20260903121803 76 129 8.0 10.0 0.00 0.00 0.00 75 1010.3
20260903120904 77 126 8.0 10.0 0.00 0.00 0.00 74 1010.3
20260903120003 77 130 8.0 10.0 0.00 0.00 0.00 74 1010.2
20260903115403 77 132 9.0 10.0 0.00 0.00 0.00 73 1010.1
20260903114503 77 131 8.0 10.0 0.00 0.00 0.00 72 1010.1
20260903113603 78 134 8.0 11.0 0.00 0.00 0.00 70 1010.1
20260903112703 79 141 9.0 13.0 0.00 0.00 0.00 69 1010.0
20260903111803 79 143 9.0 12.0 0.00 0.00 0.00 69 1010.0
20260903110903 78 141 8.0 11.0 0.00 0.00 0.00 70 1010.0
20260903110215 78 138 9.0 12.0 0.00 0.00 0.00 70 1010.0
20260903105403 78 133 10.0 14.0 0.00 0.00 0.00 70 1009.9
20260903104714 78 132 10.0 12.0 0.00 0.00 0.00 70 1009.9
20260903103603 77 129 9.0 11.0 0.00 0.00 0.00 71 1010.0
20260903102703 77 105 9.0 11.0 0.00 0.00 0.00 71 1010.0
20260903102016 77 99 9.0 11.0 0.00 0.00 0.00 71 1010.0
20260903101114 77 98 9.0 10.0 0.00 0.00 0.00 71 1010.0
20260903100004 78 126 8.0 10.0 0.00 0.00 0.00 70 1010.0
20260903095618 78 131 8.0 10.0 0.00 0.00 0.00 70 1010.0
20260903094715 78 134 7.0 9.0 0.00 0.00 0.00 70 1010.0
20260903093603 78 131 9.0 12.0 0.00 0.00 0.00 70 1009.9
20260903092704 78 126 9.0 12.0 0.00 0.00 0.00 70 1009.9
20260903092017 78 122 9.0 12.0 0.00 0.00 0.00 70 1009.9
20260903090903 78 129 10.0 12.0 0.00 0.00 0.00 69 1009.8
20260903090217 79 130 9.0 12.0 0.00 0.00 0.00 68 1009.8
20260903085613 79 129 10.0 12.0 0.00 0.00 0.00 68 1009.8
20260903084716 79 131 10.0 13.0 0.00 0.00 0.00 68 1009.7
20260903083813 79 131 10.0 13.0 0.00 0.00 0.00 68 1009.8
20260903082915 78 129 10.0 13.0 0.00 0.00 0.00 69 1009.8
20260903081803 78 128 10.0 12.0 0.00 0.00 0.00 69 1009.9
20260903081115 78 131 10.0 12.0 0.00 0.00 0.00 69 1009.9
20260903080003 78 129 9.0 12.0 0.00 0.00 0.00 69 1009.9
20260903075403 78 126 10.0 13.0 0.00 0.00 0.00 69 1009.8
20260903074716 79 128 10.0 13.0 0.00 0.00 0.00 68 1009.8
20260903073813 79 129 10.0 12.0 0.00 0.00 0.00 68 1009.9
20260903072703 79 128 10.0 13.0 0.00 0.00 0.00 67 1010.0
20260903071803 80 128 10.0 13.0 0.00 0.00 0.00 67 1010.0
20260903071116 80 130 10.0 13.0 0.00 0.00 0.00 66 1010.0
20260903070003 80 131 10.0 12.0 0.00 0.00 0.00 65 1010.0
20260903065403 80 130 10.0 14.0 0.00 0.00 0.00 65 1010.1
20260903064717 80 129 11.0 14.0 0.00 0.00 0.00 65 1010.0
20260903063814 80 129 11.0 15.0 0.00 0.00 0.00 65 1010.0
20260903062703 80 129 11.0 15.0 0.00 0.00 0.00 66 1010.0
20260903061803 80 130 11.0 14.0 0.00 0.00 0.00 66 1009.9
20260903061116 80 130 11.0 14.0 0.00 0.00 0.00 66 1009.9
20260903060214 80 130 11.0 14.0 0.00 0.00 0.00 66 1009.8
20260903055403 80 129 11.0 15.0 0.00 0.00 0.00 66 1009.9
20260903054503 81 128 12.0 17.0 0.00 0.00 0.00 66 1009.8
20260903053603 81 126 13.0 16.0 0.00 0.00 0.00 66 1009.8
20260903052912 81 125 13.0 15.0 0.00 0.00 0.00 65 1009.8
20260903051803 81 126 11.0 14.0 0.00 0.00 0.00 65 1009.8
20260903051117 82 126 11.0 14.0 0.00 0.00 0.00 64 1009.8
20260903050214 82 124 13.0 17.0 0.00 0.00 0.00 63 1009.8
20260903045616 82 123 12.0 17.0 0.00 0.00 0.00 62 1009.8
20260903044503 82 123 12.0 16.0 0.00 0.00 0.00 63 1009.7
20260903043815 82 124 12.0 15.0 0.00 0.00 0.00 62 1009.7
20260903042918 82 123 13.0 16.0 0.00 0.00 0.00 62 1009.6
20260903042015 83 123 13.0 16.0 0.00 0.00 0.00 61 1009.7
20260903041112 83 124 13.0 15.0 0.00 0.00 0.00 61 1009.7
20260903040003 83 124 12.0 15.0 0.00 0.00 0.00 60 1009.7
20260903035616 83 124 12.0 15.0 0.00 0.00 0.00 60 1009.7
20260903034714 84 125 13.0 15.0 0.00 0.00 0.00 59 1009.7
20260903033816 84 124 13.0 16.0 0.00 0.00 0.00 59 1009.6
20260903032703 84 125 13.0 16.0 0.00 0.00 0.00 59 1009.7
20260903032016 84 124 13.0 16.0 0.00 0.00 0.00 58 1009.7
20260903031113 84 124 13.0 16.0 0.00 0.00 0.00 59 1009.7
20260903030215 85 124 13.0 17.0 0.00 0.00 0.00 58 1009.7
20260903025617 85 124 13.0 17.0 0.00 0.00 0.00 58 1009.5
20260903024503 86 122 14.0 17.0 0.00 0.00 0.00 57 1009.4
20260903023817 86 123 14.0 17.0 0.00 0.00 0.00 56 1009.3
20260903022703 86 123 13.0 17.0 0.00 0.00 0.00 55 1009.3
20260903021803 86 122 12.0 17.0 0.00 0.00 0.00 55 1009.2
20260903020904 87 121 12.0 15.0 0.00 0.00 0.00 55 1009.0
20260903020004 87 119 13.0 17.0 0.00 0.00 0.00 54 1009.0
20260903015613 87 119 12.0 17.0 0.00 0.00 0.00 54 1009.0
20260903014715 88 119 12.0 16.0 0.00 0.00 0.00 54 1008.9
20260903013817 88 118 12.0 17.0 0.00 0.00 0.00 53 1008.8
20260903012703 89 118 12.0 16.0 0.00 0.00 0.00 52 1008.7
20260903011803 89 118 12.0 15.0 0.00 0.00 0.00 52 1008.7
20260903011114 89 117 13.0 16.0 0.00 0.00 0.00 51 1008.6
20260903010003 90 117 13.0 16.0 0.00 0.00 0.00 50 1008.6
20260903005403 90 118 13.0 17.0 0.00 0.00 0.00 50 1008.6
20260903004503 91 119 12.0 17.0 0.00 0.00 0.00 50 1008.7
20260903003603 92 119 13.0 16.0 0.00 0.00 0.00 48 1008.6
20260903002703 93 119 13.0 16.0 0.00 0.00 0.00 47 1008.7
20260903001803 94 119 12.0 16.0 0.00 0.00 0.00 47 1008.7
20260903000903 94 122 12.0 16.0 0.00 0.00 0.00 46 1008.6
20260903000218 95 122 12.0 16.0 0.00 0.00 0.00 45 1008.6
20260902235614 95 117 12.0 16.0 0.00 0.00 0.00 45 1008.6
20260902234503 96 120 12.0 16.0 0.00 0.00 0.00 43 1008.6
20260902233813 97 121 13.0 16.0 0.00 0.00 0.00 42 1008.6
20260902232703 97 122 13.0 19.0 0.00 0.00 0.00 41 1008.6
20260902232013 98 120 13.0 19.0 0.00 0.00 0.00 41 1008.6
20260902231116 99 123 12.0 16.0 0.00 0.00 0.00 40 1008.6
20260902230213 100 128 15.0 20.0 0.00 0.00 0.00 36 1008.6
20260902225614 100 129 15.0 21.0 0.00 0.00 0.00 36 1008.7
20260902224717 100 124 14.0 21.0 0.00 0.00 0.00 37 1008.6
20260902223603 100 122 15.0 20.0 0.00 0.00 0.00 35 1008.7
20260902222703 101 131 16.0 21.0 0.00 0.00 0.00 34 1008.7
20260902222014 101 129 18.0 25.0 0.00 0.00 0.00 33 1008.7
20260902221116 102 123 15.0 24.0 0.00 0.00 0.00 33 1008.7
20260902220003 102 139 17.0 22.0 0.00 0.00 0.00 34 1008.8
20260902215403 102 140 17.0 22.0 0.00 0.00 0.00 33 1008.8
20260902214503 102 140 14.0 20.0 0.00 0.00 0.00 33 1008.8
20260902213815 102 152 17.0 27.0 0.00 0.00 0.00 33 1008.9
20260902212917 102 142 15.0 23.0 0.00 0.00 0.00 33 1009.0
20260902212014 102 129 17.0 24.0 0.00 0.00 0.00 32 1009.2
20260902211117 102 144 18.0 29.0 0.00 0.00 0.00 33 1009.2
20260902210214 103 149 16.0 26.0 0.00 0.00 0.00 34 1009.3
20260902205403 103 146 17.0 25.0 0.00 0.00 0.00 33 1009.4
20260902204503 102 144 18.0 25.0 0.00 0.00 0.00 34 1009.5
20260902203815 102 150 17.0 28.0 0.00 0.00 0.00 34 1009.6
20260902202913 103 142 18.0 28.0 0.00 0.00 0.00 34 1009.8
20260902202015 102 151 19.0 30.0 0.00 0.00 0.00 36 1009.8
20260902201117 102 156 20.0 33.0 0.00 0.00 0.00 34 1010.0
20260902200215 102 144 21.0 31.0 0.00 0.00 0.00 35 1010.0
20260902195403 102 140 20.0 29.0 0.00 0.00 0.00 35 1010.1
20260902194503 102 151 20.0 29.0 0.00 0.00 0.00 35 1010.2
20260902193603 102 160 17.0 26.0 0.00 0.00 0.00 36 1010.3
20260902192703 102 150 20.0 31.0 0.00 0.00 0.00 36 1010.5
20260902191803 101 161 21.0 31.0 0.00 0.00 0.00 36 1010.6
20260902191113 101 163 21.0 31.0 0.00 0.00 0.00 36 1010.6
20260902190003 101 161 22.0 35.0 0.00 0.00 0.00 36 1010.7
20260902185617 101 161 21.0 35.0 0.00 0.00 0.00 35 1010.8
20260902184714 100 167 22.0 33.0 0.00 0.00 0.00 37 1011.0
20260902183817 100 162 23.0 33.0 0.00 0.00 0.00 37 1011.1
20260902182914 100 158 18.0 29.0 0.00 0.00 0.00 39 1011.3
20260902181803 100 150 19.0 30.0 0.00 0.00 0.00 40 1011.4
20260902180904 99 153 16.0 27.0 0.00 0.00 0.00 42 1011.4
20260902180005 99 163 18.0 30.0 0.00 0.00 0.00 43 1011.5
20260902175613 98 163 18.0 30.0 0.00 0.00 0.00 43 1011.6
20260902174715 97 165 17.0 27.0 0.00 0.00 0.00 44 1011.7
20260902173812 97 162 18.0 28.0 0.00 0.00 0.00 43 1011.8
20260902172915 95 161 17.0 29.0 0.00 0.00 0.00 46 1012.0
20260902171803 95 163 17.0 26.0 0.00 0.00 0.00 47 1012.0
20260902170903 93 157 16.0 26.0 0.00 0.00 0.00 49 1012.2
20260902170217 92 161 9.0 18.0 0.00 0.00 0.00 52 1012.2
20260902165613 92 168 8.0 13.0 0.00 0.00 0.00 53 1012.3
20260902164716 91 172 9.0 15.0 0.00 0.00 0.00 53 1012.4
20260902163813 90 168 12.0 18.0 0.00 0.00 0.00 54 1012.5
20260902162703 90 156 14.0 21.0 0.00 0.00 0.00 54 1012.5
20260902161803 90 160 15.0 22.0 0.00 0.00 0.00 54 1012.5
20260902160903 89 169 16.0 25.0 0.00 0.00 0.00 54 1012.6
20260902160217 88 167 16.0 25.0 0.00 0.00 0.00 54 1012.6
20260902155404 89 167 15.0 22.0 0.00 0.00 0.00 55 1012.7
20260902154716 88 165 15.0 24.0 0.00 0.00 0.00 56 1012.6
20260902153814 87 168 15.0 23.0 0.00 0.00 0.00 56 1012.7
20260902152704 88 166 16.0 24.0 0.00 0.00 0.00 54 1012.6
20260902151803 87 165 16.0 24.0 0.00 0.00 0.00 56 1012.6
20260902150904 87 163 12.0 20.0 0.00 0.00 0.00 57 1012.6
20260902150003 86 163 11.0 17.0 0.00 0.00 0.00 58 1012.6
20260902145403 86 163 12.0 17.0 0.00 0.00 0.00 60 1012.6
20260902144503 85 157 12.0 18.0 0.00 0.00 0.00 60 1012.5
20260902143814 84 157 11.0 17.0 0.00 0.00 0.00 62 1012.5
20260902142705 83 147 8.0 13.0 0.00 0.00 0.00 63 1012.6
20260902142014 82 117 7.0 10.0 0.00 0.00 0.00 67 1012.7
20260902141116 79 43 7.0 9.0 0.00 0.00 0.00 70 1012.6
20260902140004 78 8 7.0 9.0 0.00 0.00 0.00 70 1012.7
20260902135404 77 13 7.0 10.0 0.00 0.00 0.00 72 1012.6
20260902134712 76 55 6.0 8.0 0.00 0.00 0.00 74 1012.6
20260902133603 75 71 6.0 7.0 0.00 0.00 0.00 75 1012.6
20260902132917 74 33 6.0 7.0 0.00 0.00 0.00 76 1012.7
20260902131803 74 94 5.0 7.0 0.00 0.00 0.00 75 1012.6
20260902131117 74 51 5.0 8.0 0.00 0.00 0.00 75 1012.5
20260902130003 75 42 6.0 8.0 0.00 0.00 0.00 74 1012.6
20260902125616 75 49 5.0 8.0 0.00 0.00 0.00 74 1012.5
20260902124504 74 49 4.0 8.0 0.00 0.00 0.00 75 1012.6
20260902123815 74 5 6.0 9.0 0.00 0.00 0.00 75 1012.5
20260902122704 74 6 8.0 11.0 0.00 0.00 0.00 76 1012.2